User: anonymous   Login
Location: Unspecified
(0.0000°N, 0.0000°E)
Time: 09:14:14
(UTC+00:00)
Language:

SKYMED 2 - Orbit

View from above orbital plane
View from above orbital plane
View from above satellite
View from above satellite

Ground track
Ground track

The orbit data is extracted from the following two-line orbital elements,

1 32376U 07059A   18018.76851307  .00000113  00000-0  20738-4 0  9996
2 32376  97.8863 204.3968 0001660  78.7506 281.3888 14.82156116547124
Epoch (UTC): 18 January 2018 18:26:39
Eccentricity: 0.0001660
inclination: 97.8863°
perigee height: 621 km
apogee height: 623 km
right ascension of ascending node: 204.3968°
argument of perigee: 78.7506°
revolutions per day: 14.82156116
mean anomaly at epoch: 281.3888°
orbit number at epoch: 54712

The dashed part of the orbit path shows where the satellite is in the earth's shadow,  

DLR